This demonstration page uses our WeatherBlox Daily Observations layout. Learn more.

Left ArrowRight Arrow

Hourly Observations for August 11, 2017

Temp ( °F °C ) Dew Point ( °F °C ) Humidity (%) Winds ( mph kmh ) Pressure ( in mb ) Visibility ( mi km ) Precip ( " mm )
12:51 am 00:51 Partly Cloudy 80 26.7 60 15.6 51 51 NNW 8 13 29.83 1010 10 16.0934 N/A
1:51 am 01:51 Mostly Clear 77 25 61 16.1 58 58 SW 9 15 29.84 1011 10 16.0934 N/A
2:51 am 02:51 Clear 76 24.4 61 16.1 60 60 NW 5 7 29.84 1011 10 16.0934 N/A
3:51 am 03:51 Clear 76 24.4 62 16.7 62 62 N 5 7 29.84 1011 10 16.0934 N/A
4:51 am 04:51 Partly Cloudy 76 24.4 62 16.7 62 62 N N/A 29.85 1011 10 16.0934 N/A
5:51 am 05:51 Mostly Sunny 74 23.3 62 16.7 67 67 N N/A 29.87 1012 10 16.0934 N/A
6:51 am 06:51 Sunny 77 25 63 17.2 62 62 N N/A 29.87 1012 10 16.0934 N/A
7:51 am 07:51 Sunny 82 27.8 62 16.7 51 51 E 6 9 29.88 1012 10 16.0934 N/A
8:51 am 08:51 Sunny 87 30.6 60 15.6 40 40 ESE 9 15 29.85 1011 10 16.0934 N/A
9:51 am 09:51 Sunny 89 31.7 60 15.6 38 38 ESE 12 19 29.85 1011 10 16.0934 N/A
10:51 am 10:51 Sunny 90 32.2 61 16.1 38 38 SSW 8 13 29.84 1011 10 16.0934 N/A
11:51 am 11:51 Sunny 95 35 60 15.6 31 31 undefined N/A 29.81 1010 10 16.0934 N/A
12:51 pm 12:51 Sunny 97 36.1 60 15.6 29 29 S 14 22 29.78 1008 10 16.0934 N/A
1:51 pm 13:51 Sunny 97 36.1 60 15.6 29 29 SSW 15 24 29.75 1007 10 16.0934 N/A
2:51 pm 14:51 Sunny 97 36.1 59 15 28 28 N N/A 29.72 1006 10 16.0934 N/A
3:51 pm 15:51 Sunny 99 37.2 57 13.9 25 25 S 9 15 29.7 1006 10 16.0934 N/A
4:51 pm 16:51 Sunny 98 36.7 58 14.4 26 26 S 6 9 29.68 1005 10 16.0934 N/A
5:51 pm 17:51 Sunny 95 35 59 15 30 30 SSE 8 13 29.68 1005 10 16.0934 N/A
6:33 pm 18:33 Sunny with Nearby Thunderstorms 94 34.4 58 14.4 30 30 S 7 11 29.59 1002 10 16.0934 N/A
6:51 pm 18:51 Sunny with Nearby Thunderstorms 94 34.4 59 15 31 31 S 5 7 29.69 1005 10 16.0934 N/A
7:07 pm 19:07 Sunny 91 32.8 60 15.6 35 35 undefined N/A 29.62 1003 10 16.0934 N/A
7:51 pm 19:51 Mostly Cloudy with Nearby Thunderstorms 90 32.2 59 15 35 35 N 9 15 29.7 1006 10 16.0934 N/A
8:12 pm 20:12 Mostly Cloudy 90 32 61 16 38 38 N 12 19 29.65 1004 10 16.0934 N/A
8:27 pm 20:27 Mostly Cloudy with Nearby Thunderstorms 89 31.7 60 15.6 38 38 NNE 8 13 29.68 1005 10 16.0934 N/A
8:42 pm 20:42 Partly Cloudy 90 32.2 60 15.6 37 37 E 7 11 29.68 1005 10 16.0934 N/A
8:51 pm 20:51 Mostly Clear 88 31.1 60 15.6 39 39 E 7 11 29.73 1007 10 16.0934 N/A
9:02 pm 21:02 Mostly Clear with Nearby Thunderstorms 88 31 61 16 40 40 W 6 9 29.68 1005 10 16.0934 N/A
9:44 pm 21:44 Mostly Clear 88 31 61 16 40 40 ENE 6 9 29.71 1006 10 16.0934 N/A
9:51 pm 21:51 Partly Cloudy 87 30.6 60 15.6 40 40 ENE 7 11 29.74 1007 10 16.0934 N/A
10:51 pm 22:51 Mostly Clear 83 28.3 61 16.1 48 48 ENE 23 37 29.76 1008 10 16.0934 N/A
11:06 pm 23:06 Mostly Cloudy with Thunderstorms 82 27.8 62 16.7 51 51 ENE 21 33 29.74 1007 10 16.0934 N/A
11:27 pm 23:27 Mostly Cloudy with Nearby Thunderstorms 82 28 63 17 51 51 E 18 30 29.74 1007 10 16.0934 N/A
11:38 pm 23:38 Cloudy with Thunderstorms 82 28 63 17 51 51 ESE 18 30 29.77 1008 10 16.0934 N/A

Powered by AerisWeather